Weather History for Holyoke AP, Holyoke, CO, CO

Change the Weather History Date:

Tuesday, April 29, 2014

  Actual Average Record
Temperature  
Mean Temperature 40 °F -  
Max Temperature 44 °F 67 °F 86 °F (2013)
Min Temperature 37 °F 38 °F 37 °F (2014)
Degree Days  
Heating Degree Days 24    
Moisture  
Dew Point 33 °F    
Average Humidity 77    
Maximum Humidity 93    
Minimum Humidity 57    
Precipitation  
Precipitation 0.00 in - - ()
Sea Level Pressure  
Sea Level Pressure 30.00 in    
Wind  
Wind Speed 26 mph (NNW)    
Max Wind Speed 36 mph    
Max Gust Speed 47 mph    
Visibility 10 miles    
Events Rain    
Averages and records for this station are not official NWS values.
T = Trace of Precipitation, MM = Missing Value Source: NWS Daily Summary

Daily Weather History Graph

Daily Weather History Graph

Search for Another Location

Airport:

Trip Planner

Search our weather history database for the weather conditions in past years. The results will help you decide how hot, cold, wet, or windy it might be!

Date:

Astronomy

Apr. 29, 2014 Rise Set
Actual Time 5:50 AM MDT 7:42 PM MDT
Civil Twilight 5:21 AM MDT 8:12 PM MDT
Nautical Twilight 4:45 AM MDT 8:48 PM MDT
Astronomical Twilight 4:06 AM MDT 9:27 PM MDT
Moon 6:10 AM MDT (4/29) 8:25 PM MDT (4/29)
Length of Visible Light 14h 51m
Length of Day
13h 52m
New Moon, 0% of the Moon is Illuminated
Apr 29
New Moon
May 6
First Quarter
May 14
Full
May 21
Last Quarter
May 28
New

Hourly Weather History & Observations

Time (MDT) Temp. Windchill Dew Point Humidity Pressure Visibility Wind Dir Wind Speed Gust Speed Precip Events Conditions
12:15 AM 42.8 °F 32.5 °F 33.8 °F 70% 29.83 in 10.0 mi North 28.8 mph 34.5 mph N/A   Overcast
12:35 AM 42.8 °F 33.8 °F 33.8 °F 70% 29.83 in 10.0 mi North 21.9 mph 35.7 mph N/A   Overcast
12:55 AM 41.0 °F 31.9 °F 33.8 °F 76% 29.84 in 10.0 mi North 19.6 mph 24.2 mph N/A Rain Light Rain
1:15 AM 41.0 °F 31.9 °F 35.6 °F 81% 29.84 in 10.0 mi NNW 19.6 mph 26.5 mph N/A   Drizzle
1:35 AM 41.0 °F 31.6 °F 35.6 °F 81% 29.84 in 10.0 mi NNW 20.7 mph 29.9 mph N/A Rain Light Rain
1:55 AM 41.0 °F 30.9 °F 35.6 °F 81% 29.84 in 10.0 mi NNW 24.2 mph 29.9 mph N/A Rain Light Rain
2:15 AM 39.2 °F 29.3 °F 35.6 °F 87% 29.85 in 7.0 mi North 20.7 mph 33.4 mph N/A Rain Light Rain
2:35 AM 37.4 °F 26.1 °F 35.6 °F 93% 29.86 in 5.0 mi North 24.2 mph 29.9 mph N/A Rain Rain
2:55 AM 37.4 °F 27.2 °F 35.6 °F 93% 29.86 in 5.0 mi NNW 19.6 mph 31.1 mph N/A Rain Light Rain
3:15 AM 37.4 °F 26.6 °F 35.6 °F 93% 29.86 in 10.0 mi NNW 21.9 mph 34.5 mph N/A   Drizzle
3:35 AM 37.4 °F 27.8 °F 35.6 °F 93% 29.86 in 10.0 mi NNW 17.3 mph 32.2 mph N/A   Light Drizzle
3:55 AM 37.4 °F 25.6 °F 35.6 °F 93% 29.87 in 10.0 mi NNW 26.5 mph 32.2 mph N/A Rain Light Rain
4:15 AM 37.4 °F 26.9 °F 35.6 °F 93% 29.87 in 10.0 mi NNW 20.7 mph 31.1 mph N/A   Drizzle
4:35 AM 37.4 °F 25.4 °F 35.6 °F 93% 29.87 in 10.0 mi NNW 27.6 mph 38.0 mph N/A   Drizzle
4:55 AM 37.4 °F 25.6 °F 35.6 °F 93% 29.88 in 10.0 mi NNW 26.5 mph 34.5 mph N/A   Light Drizzle
5:15 AM 37.4 °F 26.4 °F 33.8 °F 87% 29.89 in 10.0 mi NNW 23.0 mph 38.0 mph N/A   Overcast
5:35 AM 37.4 °F 24.8 °F 33.8 °F 87% 29.90 in 10.0 mi NNW 31.1 mph 39.1 mph N/A   Overcast
5:55 AM 37.4 °F 25.6 °F 33.8 °F 87% 29.90 in 10.0 mi NNW 26.5 mph 36.8 mph N/A   Overcast
6:15 AM 37.4 °F 25.4 °F 33.8 °F 87% 29.91 in 10.0 mi NNW 27.6 mph 34.5 mph N/A   Overcast
6:35 AM 37.4 °F 25.6 °F 33.8 °F 87% 29.92 in 10.0 mi NNW 26.5 mph 35.7 mph N/A   Overcast
6:55 AM 37.4 °F 25.0 °F 33.8 °F 87% 29.92 in 10.0 mi North 29.9 mph 38.0 mph N/A   Overcast
7:15 AM 37.4 °F 25.4 °F 33.8 °F 87% 29.94 in 10.0 mi North 27.6 mph 33.4 mph N/A   Overcast
7:25 AM 37.4 °F 25.2 °F 33.8 °F 87% 29.94 in 10.0 mi North 28.8 mph 39.1 mph N/A   Overcast
7:55 AM 37.4 °F 26.1 °F 33.8 °F 87% 29.95 in 10.0 mi NNW 24.2 mph 36.8 mph N/A   Overcast
8:15 AM 37.4 °F 25.6 °F 32.0 °F 81% 29.96 in 10.0 mi NNW 26.5 mph 35.7 mph N/A   Overcast
8:35 AM 37.4 °F 25.9 °F 32.0 °F 81% 29.96 in 10.0 mi NNW 25.3 mph 34.5 mph N/A   Overcast
8:55 AM 39.2 °F 27.6 °F 33.8 °F 81% 29.96 in 10.0 mi NNW 28.8 mph 39.1 mph N/A   Overcast
9:15 AM 41.0 °F 29.7 °F 35.6 °F 81% 29.97 in 10.0 mi NNW 31.1 mph 36.8 mph N/A   Mostly Cloudy
9:35 AM 41.0 °F 29.5 °F 33.8 °F 76% 29.98 in 10.0 mi NNW 32.2 mph 42.6 mph N/A   Overcast
9:55 AM 41.0 °F 29.8 °F 33.8 °F 76% 29.98 in 10.0 mi North 29.9 mph 35.7 mph N/A   Overcast
10:15 AM 41.0 °F 29.8 °F 35.6 °F 81% 29.99 in 10.0 mi North 29.9 mph 38.0 mph N/A   Overcast
10:35 AM 42.8 °F 32.5 °F 35.6 °F 76% 30.00 in 10.0 mi North 28.8 mph 41.4 mph N/A   Overcast
10:55 AM 41.0 °F 29.7 °F 33.8 °F 76% 30.00 in 10.0 mi North 31.1 mph 43.7 mph N/A Rain Light Rain
11:15 AM 41.0 °F 30.2 °F 33.8 °F 76% 30.01 in 10.0 mi North 27.6 mph 35.7 mph N/A   Overcast
11:35 AM 41.0 °F 30.2 °F 33.8 °F 76% 30.01 in 10.0 mi North 27.6 mph 36.8 mph N/A   Overcast
11:55 AM 41.0 °F 30.2 °F 32.0 °F 70% 30.01 in 10.0 mi NNW 27.6 mph 35.7 mph N/A   Overcast
12:15 PM 41.0 °F 29.8 °F 32.0 °F 70% 30.01 in 10.0 mi North 29.9 mph 38.0 mph N/A Rain Light Rain
12:35 PM 41.0 °F 30.5 °F 33.8 °F 76% 30.00 in 10.0 mi NNW 26.5 mph 41.4 mph N/A Rain Light Rain
12:55 PM 44.6 °F 34.2 °F 33.8 °F 66% 29.99 in 10.0 mi NNW 33.4 mph 39.1 mph N/A   Overcast
1:15 PM 42.8 °F 32.1 °F 35.6 °F 76% 30.00 in 10.0 mi NNW 31.1 mph 39.1 mph N/A Rain Light Rain
1:35 PM 42.8 °F 32.3 °F 35.6 °F 76% 30.00 in 10.0 mi NNW 29.9 mph 40.3 mph N/A   Mostly Cloudy
1:55 PM 42.8 °F 31.8 °F 32.0 °F 66% 30.00 in 10.0 mi NNW 33.4 mph 47.2 mph N/A Rain Light Rain
2:15 PM 42.8 °F 31.8 °F 32.0 °F 66% 30.01 in 10.0 mi NNW 33.4 mph 39.1 mph N/A   Overcast
2:35 PM 42.8 °F 32.1 °F 33.8 °F 70% 30.01 in 10.0 mi North 31.1 mph 38.0 mph N/A Rain Light Rain
3:15 PM 44.6 °F 34.9 °F 33.8 °F 66% 30.01 in 10.0 mi North 28.8 mph 41.4 mph N/A   Overcast
3:35 PM 44.6 °F 35.1 °F 32.0 °F 61% 30.01 in 10.0 mi NNW 27.6 mph 39.1 mph N/A   Overcast
3:55 PM 44.6 °F 34.7 °F 32.0 °F 61% 30.03 in 10.0 mi North 29.9 mph 43.7 mph N/A Rain Light Rain
4:15 PM 44.6 °F 35.3 °F 32.0 °F 61% 30.03 in 10.0 mi NNW 26.5 mph 41.4 mph N/A   Overcast
4:35 PM 44.6 °F 33.9 °F 30.2 °F 57% 30.04 in 10.0 mi North 35.7 mph 42.6 mph N/A   Overcast
4:55 PM 42.8 °F 32.5 °F 32.0 °F 66% 30.05 in 10.0 mi North 28.8 mph 44.9 mph N/A   Overcast
5:15 PM 44.6 °F 34.9 °F 30.2 °F 57% 30.07 in 10.0 mi North 28.8 mph 46.0 mph N/A   Overcast
5:35 PM 42.8 °F 31.8 °F 30.2 °F 61% 30.07 in 10.0 mi North 33.4 mph 41.4 mph N/A   Overcast
5:55 PM 42.8 °F 31.4 °F 30.2 °F 61% 30.08 in 10.0 mi North 35.7 mph 43.7 mph N/A   Overcast
6:15 PM 42.8 °F 33.3 °F 30.2 °F 61% 30.09 in 10.0 mi North 24.2 mph 35.7 mph N/A   Overcast
6:35 PM 42.8 °F 32.9 °F 32.0 °F 66% 30.10 in 10.0 mi North 26.5 mph 38.0 mph N/A   Overcast
6:55 PM 41.0 °F 29.3 °F 30.2 °F 65% 30.10 in 10.0 mi North 33.4 mph 41.4 mph N/A   Overcast
7:15 PM 41.0 °F 29.7 °F 32.0 °F 70% 30.12 in 10.0 mi North 31.1 mph 36.8 mph N/A   Overcast
7:35 PM 39.2 °F 27.4 °F 32.0 °F 75% 30.13 in 10.0 mi North 29.9 mph 38.0 mph N/A   Overcast
7:55 PM 37.4 °F 27.2 °F 32.0 °F 81% 30.14 in 10.0 mi North 19.6 mph 29.9 mph N/A   Overcast
8:15 PM 37.4 °F 27.2 °F 32.0 °F 81% 30.14 in 10.0 mi North 19.6 mph 31.1 mph N/A   Overcast
8:35 PM 39.2 °F 29.0 °F 32.0 °F 75% 30.15 in 10.0 mi North 21.9 mph 29.9 mph N/A   Overcast
8:55 PM 37.4 °F 27.2 °F 30.2 °F 75% 30.16 in 10.0 mi North 19.6 mph 31.1 mph N/A   Overcast
9:15 PM 37.4 °F 26.4 °F 30.2 °F 75% 30.18 in 10.0 mi North 23.0 mph 31.1 mph N/A   Overcast
9:35 PM 37.4 °F 27.5 °F 30.2 °F 75% 30.19 in 10.0 mi North 18.4 mph 32.2 mph N/A   Overcast
9:55 PM 37.4 °F 25.9 °F 32.0 °F 81% 30.19 in 10.0 mi North 25.3 mph 32.2 mph N/A   Overcast
10:15 PM 37.4 °F 27.2 °F 32.0 °F 81% 30.19 in 10.0 mi North 19.6 mph 28.8 mph N/A   Overcast
10:35 PM 37.4 °F 27.5 °F 32.0 °F 81% 30.20 in 10.0 mi North 18.4 mph 23.0 mph N/A   Overcast
10:55 PM 37.4 °F 27.8 °F 32.0 °F 81% 30.20 in 10.0 mi North 17.3 mph 21.9 mph N/A   Overcast
11:15 PM 37.4 °F 28.9 °F 32.0 °F 81% 30.20 in 10.0 mi NNW 13.8 mph - N/A   Overcast
11:35 PM 37.4 °F 28.9 °F 32.0 °F 81% 30.20 in 10.0 mi NNW 13.8 mph - N/A   Overcast
11:55 PM 37.4 °F 28.9 °F 32.0 °F 81% 30.21 in 10.0 mi NNW 13.8 mph - N/A   Mostly Cloudy